| time (UTC) | temp F | wind direction | speed MPH | gust MPH | rain 1hr in | rain 24hr in | rain mn in | humidity % | barometer mb |
| 20260504110706 | 50 | 85 | 0.0 | 0.0 | 0.00 | 0.00 | 0.00 | 77 | 1004.4 |
| 20260504030951 | 49 | 277 | 0.0 | 0.0 | 0.00 | 0.00 | 0.00 | 77 | 1008.2 |
| 20260504024823 | 49 | 17 | 0.0 | 0.0 | 0.00 | 0.00 | 0.00 | 76 | 1008.4 |
| 20260504021628 | 50 | 327 | 0.0 | 0.0 | 0.00 | 0.00 | 0.00 | 75 | 1008.6 |
| 20260504020640 | 50 | 313 | 0.0 | 0.0 | 0.00 | 0.00 | 0.00 | 75 | 1008.6 |
| 20260504015648 | 50 | 12 | 0.0 | 0.0 | 0.00 | 0.00 | 0.00 | 74 | 1008.7 |
| 20260504014702 | 50 | 355 | 0.0 | 0.0 | 0.00 | 0.00 | 0.00 | 74 | 1008.7 |
| 20260504013726 | 50 | 0 | 0.0 | 0.0 | 0.00 | 0.00 | 0.00 | 74 | 1008.6 |
| 20260504012728 | 50 | 329 | 0.0 | 0.0 | 0.00 | 0.00 | 0.00 | 74 | 1008.6 |
| 20260504010626 | 50 | 294 | 0.0 | 0.0 | 0.00 | 0.00 | 0.00 | 73 | 1008.8 |
| 20260504005643 | 50 | 5 | 0.0 | 0.0 | 0.00 | 0.00 | 0.00 | 72 | 1008.8 |
| 20260504004650 | 51 | 291 | 0.0 | 0.0 | 0.00 | 0.00 | 0.00 | 71 | 1008.6 |
| 20260504003631 | 51 | 299 | 0.0 | 0.0 | 0.00 | 0.00 | 0.00 | 72 | 1008.8 |
| 20260504002623 | 51 | 317 | 0.0 | 0.0 | 0.00 | 0.00 | 0.00 | 72 | 1008.9 |
| 20260504001647 | 51 | 325 | 0.0 | 0.0 | 0.00 | 0.00 | 0.00 | 71 | 1009.1 |
| 20260504000624 | 51 | 273 | 0.0 | 2.0 | 0.00 | 0.00 | 0.00 | 71 | 1009.1 |
| 20260503235648 | 51 | 53 | 0.0 | 0.0 | 0.00 | 0.00 | 0.00 | 71 | 1009.2 |
| 20260503233445 | 52 | 331 | 0.0 | 1.0 | 0.00 | 0.00 | 0.00 | 71 | 1009.3 |
| 20260503232431 | 52 | 327 | 0.0 | 1.0 | 0.00 | 0.00 | 0.00 | 71 | 1009.4 |
| 20260503231356 | 51 | 323 | 0.0 | 0.0 | 0.00 | 0.00 | 0.00 | 72 | 1009.5 |
| 20260503230347 | 51 | 313 | 0.0 | 0.0 | 0.00 | 0.00 | 0.00 | 73 | 1009.7 |
| 20260503225348 | 51 | 292 | 0.0 | 0.0 | 0.00 | 0.00 | 0.00 | 73 | 1009.5 |
| 20260503222233 | 51 | 15 | 0.0 | 0.0 | 0.00 | 0.00 | 0.00 | 72 | 1010.2 |
| 20260503220129 | 51 | 312 | 0.0 | 0.0 | 0.00 | 0.00 | 0.00 | 72 | 1010.3 |
| 20260503215056 | 51 | 0 | 0.0 | 0.0 | 0.00 | 0.00 | 0.00 | 71 | 1010.2 |
| 20260503214112 | 51 | 282 | 0.0 | 0.0 | 0.00 | 0.00 | 0.00 | 71 | 1010.3 |
| 20260503213055 | 52 | 69 | 0.0 | 0.0 | 0.00 | 0.00 | 0.00 | 69 | 1010.5 |
| 20260503212027 | 52 | 96 | 0.0 | 0.0 | 0.00 | 0.00 | 0.00 | 69 | 1010.8 |
| 20260503211020 | 52 | 76 | 0.0 | 4.0 | 0.00 | 0.00 | 0.00 | 68 | 1011.2 |
| 20260503210017 | 52 | 93 | 1.0 | 13.0 | 0.00 | 0.00 | 0.00 | 68 | 1011.5 |
| 20260503205020 | 52 | 97 | 0.0 | 22.0 | 0.00 | 0.00 | 0.00 | 67 | 1011.7 |
| 20260503204023 | 53 | 138 | 3.0 | 22.0 | 0.00 | 0.00 | 0.00 | 65 | 1011.8 |
| 20260503203028 | 54 | 108 | 2.0 | 17.0 | 0.00 | 0.00 | 0.00 | 63 | 1012.0 |
| 20260503200900 | 56 | 83 | 3.0 | 21.0 | 0.00 | 0.00 | 0.00 | 58 | 1011.8 |
| 20260503194749 | 60 | 107 | 0.0 | 13.0 | 0.00 | 0.00 | 0.00 | 47 | 1011.3 |
| 20260503193715 | 59 | 124 | 0.0 | 17.0 | 0.00 | 0.00 | 0.00 | 47 | 1011.4 |
| 20260503192717 | 60 | 78 | 0.0 | 17.0 | 0.00 | 0.00 | 0.00 | 47 | 1011.6 |
| 20260503190559 | 60 | 101 | 0.0 | 15.0 | 0.00 | 0.00 | 0.00 | 46 | 1011.8 |
| 20260503185537 | 60 | 124 | 0.0 | 12.0 | 0.00 | 0.00 | 0.00 | 45 | 1011.9 |
| 20260503182254 | 60 | 59 | 0.0 | 17.0 | 0.00 | 0.00 | 0.00 | 44 | 1012.2 |
| 20260503181236 | 60 | 55 | 0.0 | 13.0 | 0.00 | 0.00 | 0.00 | 44 | 1012.4 |
| 20260503180217 | 60 | 78 | 1.0 | 14.0 | 0.00 | 0.00 | 0.00 | 44 | 1012.7 |
| 20260503175221 | 60 | 108 | 1.0 | 14.0 | 0.00 | 0.00 | 0.00 | 41 | 1012.8 |
| 20260503174234 | 60 | 125 | 0.0 | 14.0 | 0.00 | 0.00 | 0.00 | 43 | 1012.8 |
| 20260503173211 | 60 | 107 | 1.0 | 17.0 | 0.00 | 0.00 | 0.00 | 41 | 1012.9 |
| 20260503172230 | 60 | 98 | 1.0 | 15.0 | 0.00 | 0.00 | 0.00 | 44 | 1013.1 |
| 20260503171221 | 60 | 80 | 0.0 | 11.0 | 0.00 | 0.00 | 0.00 | 43 | 1013.3 |
| 20260503170219 | 60 | 44 | 1.0 | 8.0 | 0.00 | 0.00 | 0.00 | 42 | 1013.4 |
| 20260503150942 | 56 | 139 | 0.0 | 12.0 | 0.00 | 0.00 | 0.00 | 50 | 1014.4 |